sat.trackr.live / text

‹ back to catalog

STARLINK-35473

NORAD 65937 · 2025-225AD

PAYLOAD ACTIVE UNKNOWN

§ Identity

Operator
Country
US
Launch date
2025-10-08
Launch site
AFWTR
Launch vehicle
Mass (kg)
RCS (m²)

Purposes: comms

External: N2YO · Heavens-Above · Gunter

§ Orbital elements

Epoch: 2026-09-20T11:40:38.385696Z

Period
93.85 min
Inclination
53.1597°
Eccentricity
0.0001008
Mean motion
15.34393615 rev/d
Perigee alt
462.0 km
Apogee alt
463.4 km
Semi-major
6,840.9 km
B*
3.4712e-4
RAAN
337.9381°
Arg perigee
70.8537°
Mean anomaly
289.2575°
Rev number
5,338

§ Raw data

STARLINK-354731 65937U 25225AD  26263.48655539  .00011367  00000+0  34712-3 0  99972 65937  53.1597 337.9381 0001008  70.8537 289.2575 15.34393615 53382

JSON: /api/v1/satellites/65937 · /tle

For live sub-satellite position, see the globe view (requires WebGL).

§ Visibility from observer

Set your observer location to see the next 7 days of passes ≥ 10°. The values pass through the URL so the page stays shareable.

No JS? Fill the form by hand. The geolocation button needs JavaScript.